Regional Weather Roundup
Issued by NWS

Home | Current Version | Previous Version | Text Only | Print | Product List | Glossary On
Versions: 1 2 3 4 5 6 7 8 9 10 11 12 13 14 15 16 17 18 19 20 21 22 23 24 25 26 27 28 29 30 31 32 33 34 35 36 37 38 39 40 41 42 43 44 45 46 47 48 49 50
000
ASUS43 KTOP 301808
RWRKS

WEATHER ROUNDUP FOR KANSAS
NATIONAL WEATHER SERVICE GOODLAND KS
100 PM CDT THU MAR 30 2017

NOTE:  "FAIR" INDICATES FEW OR NO CLOUDS BELOW 12,000 FEET WITH NO
SIGNIFICANT WEATHER AND/OR OBSTRUCTIONS TO VISIBILITY.

KSZ001>006-013>018-027>032-041>047-301900-
NORTHWEST KANSAS

CITY           SKY/WX    TMP DP  RH WIND       PRES   REMARKS
GOODLAND       CLOUDY    47  40  76 NW8       29.79S
6HR MIN TEMP:  34; 6HR MAX TEMP:  48;

HAYS             N/A     45  38  76 NW17      29.77F
HILL CITY      CLOUDY    42  38  85 N12       29.81S
6HR MIN TEMP:  38; 6HR MAX TEMP:  43;

RUSSELL        CLOUDY    44  38  79 NW20      29.75S
6HR MIN TEMP:  39; 6HR MAX TEMP:  44;

$$

KSZ061>065-074>080-084>089-301900-
SOUTHWEST KANSAS

CITY           SKY/WX    TMP DP  RH WIND       PRES   REMARKS
DODGE CITY     CLOUDY    46  38  73 N12G23    29.80F
6HR MIN TEMP:  39; 6HR MAX TEMP:  46;

ELKHART          N/A     54  38  55 SE2         N/A
GARDEN CITY    MOSUNNY   48  39  71 NW10      29.81S
6HR MIN TEMP:  38; 6HR MAX TEMP:  49;

GREAT BEND     CLOUDY    44  38  79 N22       29.76F
LIBERAL        CLOUDY    54  43  66 N9        29.83F
PRATT          CLOUDY    42  37  82 NW21      29.78S
6HR MIN TEMP:  37; 6HR MAX TEMP:  42;

$$

KSZ066>073-081>083-090>101-301900-
SOUTHEAST KANSAS

CITY           SKY/WX    TMP DP  RH WIND       PRES   REMARKS
CHANUTE        LGT RAIN  50  47  89 W18G26    29.60R
6HR MIN TEMP:  45; 6HR MAX TEMP:  52; 6HR PCP:  0.11;

COFFEYVILLE    CLOUDY    47  44  90 W21G29    29.65R
6HR MIN TEMP:  45; 6HR MAX TEMP:  48; 6HR PCP:  0.01;

HUTCHINSON     CLOUDY    45  39  81 NW17G26   29.73S
MEDICINE LODGE   N/A     49  38  65 NW16G26   29.76S
NEWTON         CLOUDY    42  40  92 NW18G26   29.70S
PARSONS        CLOUDY    48  44  86 W21G26    29.64R
6HR MIN TEMP:  45; 6HR MAX TEMP:  48; 6HR PCP:  0.01;

WICHITA INTL   CLOUDY    44  41  89 NW18      29.72S
6HR MIN TEMP:  41; 6HR MAX TEMP:  44; 6HR PCP: TRACE;

WICHITA JABRA  CLOUDY    44  41  89 NW18      29.70S
6HR MIN TEMP:  41; 6HR MAX TEMP:  44;

WICHITA MCCONL CLOUDY    45  39  81 NW17G25   29.70F
WINFIELD       CLOUDY    46  40  79 NW20G29   29.73S
6HR MIN TEMP:  42; 6HR MAX TEMP:  46;

$$

KSZ007>012-019>026-033>040-048>060-102>105-301900-
NORTHEAST KANSAS

CITY           SKY/WX    TMP DP  RH WIND       PRES   REMARKS
CONCORDIA      CLOUDY    43  40  89 N18       29.71F
6HR MIN TEMP:  39; 6HR MAX TEMP:  43; 6HR PCP: TRACE;

EMPORIA        CLOUDY    45  43  93 NW17G24   29.64R
6HR MIN TEMP:  45; 6HR MAX TEMP:  47; 6HR PCP:  0.02;

LAWRENCE       CLOUDY    51  50  96 NW13      29.59S
6HR MIN TEMP:  47; 6HR MAX TEMP:  51; 6HR PCP:  0.03;

MANHATTAN      CLOUDY    45  41  86 N10G18    29.68S
6HR MIN TEMP:  43; 6HR MAX TEMP:  45; 6HR PCP:  0.09;

MARYSVILLE     CLOUDY    43  41  93 N14G21    29.68S
OLATHE IND     CLOUDY    51  47  86 N9        29.58S
6HR MIN TEMP:  46; 6HR MAX TEMP:  53; 6HR PCP:  0.05;

OLATHE EXE     CLOUDY    51  47  86 N8        29.57S
6HR MIN TEMP:  45; 6HR MAX TEMP:  52; 6HR PCP:  0.05;

SALINA         CLOUDY    45  41  86 N16       29.73S
6HR MIN TEMP:  42; 6HR MAX TEMP:  45; 6HR PCP:  0.02;

TOPEKA BILLARD CLOUDY    48  46  93 N15       29.62R
6HR MIN TEMP:  47; 6HR MAX TEMP:  50; 6HR PCP: TRACE;

TOPEKA FORBES  CLOUDY    48  46  93 N15       29.61S
6HR MIN TEMP:  47; 6HR MAX TEMP:  51; 6HR PCP:  0.05;

$$




USA.gov is the U.S. government's official web portal to all federal, state and local government web resources and services.